Location: Kawakawa
(35.3830°S, 174.0670°E)
Time: 15:11:34
(UTC+13:00)

Altair - Pass Details

Date: 14 December 2019
Orbit: 1502 x 1682 km, 47.2° (Epoch: 25 January)

Event Time Altitude Azimuth Distance (km) Brightness Sun altitude
Rises 11:38:06 0° 266° (W) 4,801 9.9 65.1°
Reaches altitude 10° 11:41:25 10° 259° (WSW) 3,844 9.5 65.8°
Maximum altitude 11:50:43 44° 188° (S) 2,184 8.8 67.5°
Drops below altitude 10° 12:00:19 10° 118° (ESE) 3,954 10.0 69.2°
Sets 12:03:47 0° 111° (ESE) 4,949 10.3 69.8°
